Regional Weather Roundup
Issued by NWS

Home | Current Version | Previous Version | Text Only | Print | Product List | Glossary On
Versions: 1 2 3 4 5 6 7 8 9 10 11 12 13 14 15 16 17 18 19 20 21 22 23 24 25 26 27 28 29 30 31 32 33 34 35 36 37 38 39 40 41 42 43 44 45 46 47 48 49 50
000
ASUS43 KMKX 181810
RWRWI

WISCONSIN REGIONAL WEATHER ROUNDUP
NATIONAL WEATHER SERVICE MILWAUKEE/SULLIVAN WI
1200 PM CST WED JAN 18 2017

NOTE: "FAIR" INDICATES FEW OR NO CLOUDS BELOW 12,000 FEET WITH NO
SIGNIFICANT WEATHER AND/OR OBSTRUCTIONS TO VISIBILITY.

WIZ001-002-006>008-014>016-023>028-181900-
NORTHWEST WISCONSIN

CITY           SKY/WX    TMP DP  RH WIND       PRES   REMARKS
SUPERIOR ARPT  SUNNY     37  26  65 SW12      29.81F WCI  29
6HR MIN TEMP:  25; 6HR MAX TEMP:  37;

ASHLAND        SUNNY     39  27  62 SW15      29.80F WCI  31
6HR MIN TEMP:  30; 6HR MAX TEMP:  39;

HAYWARD        SUNNY     35  26  69 S12       29.84F WCI  27
6HR MIN TEMP:  26; 6HR MAX TEMP:  35;

SIREN          SUNNY     38  27  66 SW9       29.85F WCI  31
6HR MIN TEMP:  28; 6HR MAX TEMP:  38; 6HR PCP:  0.01;

CUMBERLAND     SUNNY     34  28  80 S13       29.85F WCI  25
RICE LAKE      SUNNY     35  28  76 S9        29.89F WCI  28
6HR MIN TEMP:  26; 6HR MAX TEMP:  35;

CHETEK         SUNNY     36  28  74 S3        29.89F
6HR MIN TEMP:  26; 6HR MAX TEMP:  36;

LADYSMITH      SUNNY     35  28  75 S10       29.88F WCI  28
6HR MIN TEMP:  28; 6HR MAX TEMP:  35;

EAU CLAIRE     SUNNY     36  29  75 SW9       29.91S WCI  29
6HR MIN TEMP:  26; 6HR MAX TEMP:  36;

MENOMONIE      SUNNY     37  29  74 MISG      29.91S
6HR MIN TEMP:  28; 6HR MAX TEMP:  37;

NEW RICHMOND   SUNNY     37  29  74 S10       29.88F WCI  29
6HR MIN TEMP:  26; 6HR MAX TEMP:  37; 6HR PCP:  0.02;

OSCEOLA        SUNNY     38  29  71 S7        29.90F WCI  32
6HR MIN TEMP:  27; 6HR MAX TEMP:  38;

$$

WIZ003>005-009-010-017-018-181900-
NORTH CENTRAL WISCONSIN

CITY           SKY/WX    TMP DP  RH WIND       PRES   REMARKS
MANITOWISH WTR SUNNY     37  28  71 S9        29.80F WCI  30
6HR MIN TEMP:  26; 6HR MAX TEMP:  37;

ARBOR VITAE    SUNNY     39  29  67 SW6G16    29.82F WCI  35
6HR MIN TEMP:  27; 6HR MAX TEMP:  39;

WOODRUFF       SUNNY     39  29  67 SW6G16    29.82F WCI  35
6HR MIN TEMP:  27; 6HR MAX TEMP:  39;

RHINELANDER    SUNNY     37  29  72 SW12      29.85F HAZE    WCI  29
6HR MIN TEMP:  28; 6HR MAX TEMP:  37; 6HR PCP: TRACE;

EAGLE RIVER    SUNNY     37  27  65 SW8       29.81F WCI  31
6HR MIN TEMP:  26; 6HR MAX TEMP:  37;

LAND O LAKES   SUNNY     40  27  59 SW7       29.81F
6HR MIN TEMP:  24; 6HR MAX TEMP:  40;

PHILLIPS       SUNNY     35  28  78 SW12      29.84F WCI  26
TOMAHAWK       SUNNY     37  28  70 S5        29.86F WCI  33
6HR MIN TEMP:  27; 6HR MAX TEMP:  37;

MEDFORD        MOSUNNY   31  28  88 S9        29.88F WCI  23
6HR MIN TEMP:  27; 6HR MAX TEMP:  31;

MERRILL        SUNNY     35  30  83 SW8         N/A  WCI  28
6HR MIN TEMP:  29; 6HR MAX TEMP:  35;

$$

WIZ029-030-035-036-043>047-181900-
CENTRAL WISCONSIN

CITY           SKY/WX    TMP DP  RH WIND       PRES   REMARKS
WAUSAU         SUNNY     32  30  92 S5        29.89F WCI  27
6HR MIN TEMP:  29; 6HR MAX TEMP:  32;

MOSINEE        MOSUNNY   34  34 100 S8        29.91F WCI  27
MARSHFIELD     SUNNY     35  30  82 S9        29.89F WCI  28
6HR MIN TEMP:  29; 6HR MAX TEMP:  35;

STEVENS POINT  MOSUNNY   32  31  96 S9        29.93F WCI  24
6HR MIN TEMP:  29; 6HR MAX TEMP:  32;

WAUPACA        SUNNY     40  32  73 CALM      29.96F
6HR MIN TEMP:  34; 6HR MAX TEMP:  40;

WAUTOMA        SUNNY     38  31  76 SW7       29.97F WCI  33
6HR MIN TEMP:  32; 6HR MAX TEMP:  40;

WISC RAPIDS    SUNNY     33  31  92 S12       29.94F WCI  24
6HR MIN TEMP:  30; 6HR MAX TEMP:  33;

CAMP DOUGLAS   SUNNY     37  30  75 SW7       29.96S WCI  32
$$

WIZ011>013-019>022-031-037>040-048>050-181900-
NORTHEAST WISCONSIN

CITY           SKY/WX    TMP DP  RH WIND       PRES   REMARKS
ANTIGO         MOSUNNY   31  31 100 SW10      29.88F WCI  22
6HR MIN TEMP:  28; 6HR MAX TEMP:  31;

SHAWANO        PTSUNNY   38  32  78 SW5       29.94F WCI  35
6HR MIN TEMP:  33; 6HR MAX TEMP:  38;

OCONTO         PTSUNNY   35  31  85 SW10      29.94F WCI  27
6HR MIN TEMP:  31; 6HR MAX TEMP:  35;

STURGEON BAY   CLOUDY    34  32  92 SW15      29.93F WCI  24
6HR MIN TEMP:  31; 6HR MAX TEMP:  34;

GREEN BAY      CLOUDY    35  32  88 SW12      29.96F WCI  27
6HR MIN TEMP:  34; 6HR MAX TEMP:  36;

MANITOWOC      CLOUDY    37  35  92 SW8       29.98F WCI  31
6HR MIN TEMP:  32; 6HR MAX TEMP:  37; 6HR PCP: TRACE;

APPLETON       PTSUNNY   32  32 100 SW8       29.94F WCI  25
CLINTONVILLE   MOSUNNY   36  32  87 SW12      29.93F WCI  27
OSHKOSH        CLOUDY    33  30  88 SW12      29.97F WCI  24
6HR MIN TEMP:  32; 6HR MAX TEMP:  34;

$$

WIZ032>034-041-042-053>061-181900-
SOUTHWEST WISCONSIN

CITY           SKY/WX    TMP DP  RH WIND       PRES   REMARKS
LA CROSSE      MOSUNNY   36  30  79 S14       29.98F WCI  27
6HR MIN TEMP:  33; 6HR MAX TEMP:  36;

SPARTA         SUNNY     37  31  77 SW6G16    29.98R WCI  33
6HR MIN TEMP:  30; 6HR MAX TEMP:  37; 6HR PCP:  0.04;

VIROQUA        CLOUDY    31  31  99 SW14G21   29.98F WCI  21
6HR MIN TEMP:  29; 6HR MAX TEMP:  32;

BOSCOBEL       CLOUDY    34  29  82 SW9       30.05F WCI  27
6HR MIN TEMP:  33; 6HR MAX TEMP:  34;

PRAIRIE DU CHI CLOUDY    33  30  88 S6        30.04F FOG     WCI  28
6HR MIN TEMP:  31; 6HR MAX TEMP:  33;

PLATTEVILLE    CLOUDY    32  32 100 SW13      30.06F WCI  22
6HR MIN TEMP:  31; 6HR MAX TEMP:  32;

$$

WIZ056-057-062-063-064-067-068-181900-
SOUTH CENTRAL WISCONSIN

CITY           SKY/WX    TMP DP  RH WIND       PRES   REMARKS
REEDSBURG      NOT AVBL
BARABOO/DELLS  SUNNY     36  30  80 SW14      29.97F WCI  27
6HR MIN TEMP:  31; 6HR MAX TEMP:  36;

LONE ROCK      CLOUDY    33  29  85 SW15G21   30.05R WCI  23
6HR MIN TEMP:  32; 6HR MAX TEMP:  34;

MINERAL POINT  CLOUDY    32  32 100 S17G23    30.03F WCI  21
MADISON        CLOUDY    34  30  85 SW13      30.03R WCI  25
6HR MIN TEMP:  31; 6HR MAX TEMP:  34;

MIDDLETON      CLOUDY    34  34  99 SW15G22   30.02S WCI  24
6HR MIN TEMP:  33; 6HR MAX TEMP:  35;

WATERTOWN      CLOUDY    35  35 100 SW14      30.00F WCI  25
6HR MIN TEMP:  31; 6HR MAX TEMP:  35;

MONROE         CLOUDY    32  32 100 SW20G28   30.04F FOG     WCI  20
JANESVILLE     CLOUDY    36  36 100 SW17G23   30.05F WCI  25
$$

WIZ051-052-058>065-066-070>072-181900-
SOUTHEAST WISCONSIN

CITY           SKY/WX    TMP DP  RH WIND       PRES   REMARKS
MILWAUKEE      MOSUNNY   37  32  82 SW12      30.01F WCI  29
6HR MIN TEMP:  34; 6HR MAX TEMP:  38;

WAUKESHA       CLOUDY    34  32  93 SW7       30.01F WCI  28
MILWAUKEE/TIMM MOSUNNY   37  30  75 SW8       30.01F WCI  31
RACINE         CLOUDY    36  32  85 SW9       30.04F WCI  29
6HR MIN TEMP:  34; 6HR MAX TEMP:  37;

KENOSHA        CLOUDY    35  33  92 SW13      30.04F WCI  26
6HR MIN TEMP:  33; 6HR MAX TEMP:  35;

FOND DU LAC    CLOUDY    34  30  85 SW8       29.97F WCI  27
6HR MIN TEMP:  32; 6HR MAX TEMP:  34;

SHEBOYGAN      MOSUNNY   35  31  85 SW7       29.98F WCI  29
6HR MIN TEMP:  33; 6HR MAX TEMP:  35;

WEST BEND      PTSUNNY   36  34  93 SW8       29.98F WCI  29
JUNEAU         CLOUDY    33  32  96 S13       30.00F WCI  24
6HR MIN TEMP:  31; 6HR MAX TEMP:  33;

$$

LSZ147-162-181900-
LAKE SUPERIOR

STATION/POSITION TIME  TEMP    WIND        PRES    WAVE
                       AIR SEA DIR/SP/G            HT/PER
                 (UTC) (F)     (DEG/KT/KT) (MB)    (FT/S)
DEVILS ISLAND    1700   33     240/ 16/ 19 1009.9R
PORT WING        1730   38     210/  9/ 13 1009.5F
SAXON HARBOR     1740   42     220/  9/ 14 1009.1F
$$

LMZ867-665-643>646-181900-
LAKE MICHIGAN

STATION/POSITION TIME  TEMP    WIND        PRES    WAVE
                       AIR SEA DIR/SP/G            HT/PER
                 (UTC) (F)     (DEG/KT/KT) (MB)    (FT/S)
NORTHPORT PIER   1740   34     170/  6/ 13 1013.2F
SISTER BAY       1735   36     230/ 13/ 19   N/A
ALGOMA LAKESHORE 1708          260/ 13/ 17   N/A
KEWAUNEE LAKESHO 1748   35     230/  8/ 12 1014.6F
SHEBOYGAN LAKESH 1800   34     210/  8/  9 1015.7F
POR



USA.gov is the U.S. government's official web portal to all federal, state and local government web resources and services.